{"data":{"norad_id":43072,"epoch":"2026-05-25T01:14:39.134112Z","epoch_age_seconds":80760,"freshness":"FRESH","line1":"1 43072U 17083C   26145.05184183 -.00000027  00000+0 -16829-4 0  9993","line2":"2 43072  86.3951 331.6782 0001768  83.1747 276.9650 14.34217826440856","mean_motion":14.34217826,"eccentricity":0.0001768,"inclination_deg":86.3951,"raan_deg":331.6782,"arg_perigee_deg":83.1747,"mean_anomaly_deg":276.965,"bstar":-1.6829e-5,"rev_number":44085,"period_min":100.40315870401,"perigee_km":776.40175543033,"apogee_km":778.93204768992,"semimajor_km":7155.8039015601,"source":"CELESTRAK","updated_at":"2026-05-25T13:38:14.805041Z"}}